SCP
0 -0 -0 -0 -0 -0 0 -0 -0 -0 -0 0 0 0 0 0 0 0 0 -0 -0 0 -0 -0 -1 -0 0 0 1 1 2 0 1 4 4 2 2 1 1 0 0 0 0 0
0 0 -0 -0 0 0 0 -0 -0 -0 -0 0 0 -0 0 0 -0 0 0 -0 0 -0 -0 -1 -0 -0 -0 -0 0 1 2 2 2 0 1 3 3 1 0 0 0 1 0 0
-0 -0 -0 -0 -0 -0 -0 0 0 0 0 0 0 0 -0 0 0 0 -0 0 0 0 0 0 -0 -0 -0 -0 0 0 1 1 1 1 1 1 0 0 0 0 0 -0 0 0
-0 0 -0 -0 0 0 -0 -0 -0 0 0 0 0 0 0 0 0 0 0 -0 0 0 -0 -0 -0 0 0 0 0 0 0 0 1 0 0 0 -0 -0 -0 0 0 0 -0 0
0 0 0 -0 0 -0 -0 0 -0 0 0 0 0 0 0 0 0 0 0 0 0 0 0 0 0 0 0 0 0 0 0 0 0 0 -0 -0 -0 -0 -0 -0 0 0 0 0
-0 -0 -0 0 -0 0 0 -0 0 0 0 0 0 0 0 0 0 0 0 0 0 0 0 0 0 0 0 0 0 0 0 0 0 0 0 -0 -0 -0 -0 -0 0 0 0 0
0 -0 -0 -0 0 0 -0 -0 -0 0 -0 0 0 0 0 -0 0 0 0 0 0 0 0 0 -0 -0 0 -0 -0 0 0 0 -0 -0 -0 -0 -0 -0 0 0 0 0 0 0
-0 -0 0 0 0 0 0 0 0 0 0 0 0 0 0 0 0 -0 0 0 0 0 0 0 0 0 0 -0 -0 -0 -0 -0 -0 -0 -0 -0 -0 -0 -0 -0 0 0 0 0
-0 0 -0 -0 0 0 0 0 0 0 0 0 0 0 0 0 0 0 0 0 0 0 0 0 0 0 0 0 -0 -0 -0 -0 -0 -0 -0 -0 -0 0 0 0 0 0 0 0
0 0 0 0 0 0 0 -0 0 0 0 0 0 0 0 0 0 0 0 0 0 0 0 0 0 0 0 0 0 0 -0 -0 -0 -0 -0 -0 -0 0 0 0 0 0 0 0
0 0 0 0 0 0 0 0 0 0 0 0 0 0 0 0 0 0 0 0 0 0 0 0 0 0 0 0 0 0 0 0 -0 -0 -0 -0 -0 0 0 0 0 0 0 0
0 0 0 0 0 0 0 0 0 0 0 0 0 0 0 0 0 0 0 0 0 0 0 0 0 0 0 0 0 0 0 0 0 0 0 -0 -0 0 0 0 0 0 0 0
0 0 0 0 0 0 0 0 0 0 0 0 0 0 0 0 0 0 0 0 0 0 0 0 0 0 0 0 0 0 0 0 0 0 0 0 0 0 0 0 0 0 0 0
0 0 0 0 0 0 0 0 0 0 0 0 0 0 0 0 0 0 0 0 0 0 0 0 0 0 0 0 0 0 0 0 0 -0 -0 0 -0 -0 -0 -0 -0 0 0 0
0 0 0 0 0 0 0 0 0 0 0 0 0 0 0 0 0 0 0 0 0 0 0 0 0 0 0 0 0 0 0 -0 -0 -0 -0 -0 0 0 0 0 0 0 0 0
0 0 0 0 0 0 0 0 0 0 0 0 0 0 0 0 0 0 0 0 0 0 0 0 0 0 0 0 0 0 0 0 -0 0 0 0 0 0 0 0 0 0 0 0
0 0 0 0 0 0 0 0 0 0 0 0 0 0 0 0 0 0 0 0 0 0 0 0 0 0 0 0 0 0 0 0 0 0 0 -0 -0 0 0 0 0 0 0 0
0 0 0 0 0 0 0 0 0 0 0 0 0 0 0 0 0 0 0 0 0 0 0 0 0 0 0 0 0 0 0 0 0 0 0 0 -0 0 0 0 0 0 0 0
0 0 0 0 0 0 0 0 0 0 0 0 0 0 0 0 0 0 0 0 0 0 0 0 0 0 0 0 0 0 0 0 0 0 0 0 0 0 0 0 0 0 0 0
0 0 0 0 0 0 0 0 0 0 0 0 0 0 0 0 0 0 0 0 0 0 0 0 0 0 0 0 0 0 0 0 0 0 0 0 0 0 -0 0 0 0 -0 0
-0 0 0 0 0 0 0 0 0 0 0 0 0 0 0 0 0 0 0 0 0 0 0 0 0 0 0 0 0 0 0 0 0 0 0 0 0 0 0 0 0 0 0 -0
0 0 0 0 0 0 0 0 0 0 0 0 0 0 0 0 0 0 0 0 0 0 0 0 0 0 0 0 0 0 0 -0 0 0 0 0 0 0 0 0 0 0 0 0
0 0 0 0 0 0 0 0 0 0 0 0 0 0 0 0 0 0 0 0 0 0 0 0 0 0 0 0 0 0 0 0 0 0 0 0 0 -0 0 0 0 0 0 0
0 0 0 0 0 0 0 0 0 0 0 0 0 0 0 0 0 0 0 0 0 0 0 0 0 0 0 0 0 0 0 0 0 0 0 0 0 -0 -0 -0 0 0 0 0
0 0 0 0 0 0 0 0 0 0 0 0 0 0 0 0 0 0 0 0 0 0 0 0 0 0 0 -0 0 0 0 0 0 0 0 0 0 0 -0 -0 -0 0 0 -0
0 0 0 0 0 0 0 0 0 0 0 0 0 0 0 0 0 0 0 0 0 0 0 0 0 -0 0 -0 0 0 0 0 0 0 0 0 0 0 0 -0 -0 -0 0 0
Wind_Speed_500mb
8 7 10 23 15 14 8 6 7 9 20 21 11 14 15 27 43 54 60 68 36 58 56 60 64 49 42 43 20 30 38 40 44 70 76 67 72 62 60 66 70 60 57 52
10 10 25 19 7 11 17 5 12 6 21 25 13 10 15 23 12 41 37 50 29 39 54 63 55 54 59 39 30 25 6 18 37 61 66 65 62 68 60 58 54 34 40 56
13 13 17 5 13 11 4 6 6 1 16 19 19 15 18 11 35 54 22 18 38 61 61 62 62 58 54 53 49 33 23 14 26 24 33 47 56 49 39 45 22 37 49 48
5 7 3 13 5 4 5 6 5 9 8 7 3 2 10 16 14 10 30 18 56 56 57 63 70 66 57 56 49 46 42 36 39 62 40 49 59 61 48 15 20 34 31 18
10 0 9 10 7 7 14 8 11 5 9 9 16 11 8 8 15 26 11 37 54 51 54 60 62 65 62 58 56 53 50 53 56 65 65 65 65 64 49 39 42 29 15 23
10 9 4 7 8 9 12 8 15 11 7 9 11 12 11 7 7 20 25 34 49 52 47 44 45 44 50 56 62 65 66 67 68 67 63 62 60 64 64 48 35 23 15 20
14 5 5 2 11 14 19 14 8 11 11 6 7 17 9 13 11 16 18 35 46 51 48 44 47 49 45 48 52 57 65 70 73 73 70 62 57 55 57 58 58 48 36 31
8 11 3 3 7 6 6 12 9 2 4 6 12 9 5 9 21 2 39 48 44 41 38 35 30 27 31 42 50 54 58 64 69 72 72 64 62 61 57 51 48 52 47 35
11 10 12 13 1 10 10 11 2 11 5 9 2 6 4 8 14 22 27 40 38 41 39 32 26 29 33 38 42 47 53 61 69 72 76 76 66 60 63 59 47 47 46 38
9 6 8 14 18 17 14 4 13 9 5 4 5 4 7 7 5 9 17 26 31 35 32 30 31 32 32 37 42 50 57 58 63 68 76 78 69 62 53 53 54 47 47 40
6 7 13 9 12 5 11 10 13 10 7 7 0 7 4 6 2 11 15 28 34 37 38 39 33 38 44 49 53 54 53 57 64 64 73 69 65 68 51 49 52 46 43 43
6 8 3 3 6 6 8 6 10 9 9 2 9 5 8 6 28 29 40 53 54 46 42 42 43 43 42 46 49 51 54 62 61 59 67 64 68 66 63 53 44 50 49 41
8 7 7 15 14 14 10 8 6 7 6 4 9 5 14 12 28 41 47 41 39 41 43 47 47 52 58 61 57 54 57 58 53 59 69 66 64 60 61 62 53 53 49 43
9 7 10 8 10 9 14 19 10 8 8 3 6 9 16 18 16 34 40 38 41 42 46 49 51 51 47 53 55 54 55 55 58 65 72 68 69 65 65 64 60 56 41 39
9 6 8 5 10 10 14 16 19 22 5 11 9 19 5 8 14 29 33 36 36 36 39 42 48 49 53 55 48 51 50 56 62 72 70 67 70 72 70 61 55 44 36 31
11 4 11 8 7 21 18 19 23 20 22 23 18 15 11 17 24 35 36 35 32 35 46 52 50 51 53 49 42 43 49 60 68 65 61 67 76 80 60 47 36 30 15 7
6 5 6 8 13 6 15 16 22 21 23 6 10 6 12 16 20 29 36 36 37 34 42 52 53 48 44 30 33 43 49 64 64 54 63 72 82 61 40 32 16 11 34 35
6 4 4 5 12 9 3 8 31 31 18 14 12 8 18 20 12 27 40 41 40 44 50 47 51 43 27 20 26 36 55 63 54 56 69 64 52 67 44 38 36 33 30 30
8 7 5 6 2 4 6 9 5 6 9 7 8 15 26 29 29 31 39 43 47 53 51 46 44 35 22 27 47 54 54 58 57 64 60 53 36 46 51 45 34 31 27 32
10 10 8 4 3 6 2 9 26 14 2 10 17 16 20 25 9 11 40 45 50 38 35 40 31 26 37 40 42 48 57 52 58 50 51 41 35 29 30 30 29 23 29 35
3 5 4 1 5 2 5 16 20 1 6 4 15 21 21 8 17 34 44 41 26 30 33 36 40 43 45 43 41 51 50 51 49 45 44 39 41 46 42 35 28 31 33 32
8 7 1 3 6 4 25 9 9 5 8 16 20 24 23 26 38 43 29 27 26 36 40 45 47 50 45 43 33 36 40 43 37 36 44 48 41 37 30 26 28 26 24 25
6 8 8 5 8 9 39 33 22 18 20 24 27 29 34 37 34 19 28 41 46 41 42 39 43 43 40 41 28 28 31 30 23 28 36 36 40 49 50 38 19 17 18 17
7 3 9 8 4 22 24 24 23 24 25 26 32 30 31 32 38 44 48 55 42 42 45 42 42 39 46 38 29 19 24 23 22 24 31 27 35 43 48 51 41 34 34 31
3 6 7 6 16 16 23 23 23 22 25 25 24 25 34 43 51 51 49 42 29 38 47 50 48 36 36 33 21 20 20 22 22 28 32 31 26 34 44 50 51 47 51 46
7 4 6 7 9 10 11 19 20 22 22 26 33 41 48 51 52 52 49 51 51 55 50 38 32 31 20 25 15 20 22 23 28 28 30 26 21 23 38 45 50 47 47 46
Wind_Direction_500mb
311 56 254 264 213 217 271 342 81 105 152 67 56 49 326 18 48 46 15 360 354 51 54 55 52 52 52 61 97 223 227 238 243 233 227 231 237 246 245 240 238 243 246 236
19 224 244 242 314 327 331 81 333 90 120 95 84 23 341 25 42 67 353 336 9 57 42 42 45 47 47 42 33 47 222 252 251 250 251 252 255 245 241 248 250 229 251 312
180 227 228 317 1 47 26 62 356 306 72 83 98 12 355 346 54 92 227 250 74 69 53 41 36 39 43 43 37 24 18 336 280 279 282 284 290 321 316 304 283 341 344 311
214 292 53 31 14 116 11 270 329 319 67 160 95 165 323 341 358 58 102 129 88 75 62 47 41 43 39 40 36 31 23 13 6 20 12 13 19 30 33 22 292 284 32 272
259 347 47 36 273 345 245 322 312 304 115 105 7 83 315 3 5 21 18 82 83 73 58 52 44 42 42 37 33 26 17 13 11 19 17 13 12 11 11 13 1 357 344 278
241 281 122 213 306 320 274 348 30 40 63 56 254 121 334 331 88 86 272 93 88 82 72 58 51 44 39 34 33 33 31 27 22 21 23 20 12 7 7 5 6 355 325 295
328 234 284 45 26 359 52 53 360 8 12 179 260 57 219 286 111 178 146 113 103 91 75 67 60 41 28 27 27 27 23 20 17 17 19 18 11 3 360 359 358 357 339 323
5 35 166 359 136 203 25 112 139 251 269 283 359 139 217 215 352 281 114 114 98 96 90 77 57 49 31 23 17 13 10 8 6 4 4 5 4 1 355 345 344 343 344 330
23 335 332 341 288 91 313 35 250 107 13 74 324 30 71 254 290 52 82 103 115 106 98 94 80 57 44 28 20 9 3 358 356 355 355 353 348 349 347 345 337 332 337 333
333 7 17 312 46 20 85 274 27 15 65 24 338 162 242 177 265 41 58 81 108 114 103 82 61 55 42 27 15 5 359 1 356 354 357 353 350 346 338 341 335 330 336 346
32 73 304 32 15 311 6 35 56 108 119 151 177 317 284 189 243 85 64 48 74 85 71 62 61 37 21 15 10 4 359 355 353 350 353 355 353 348 343 336 338 330 321 323
15 133 308 240 245 89 114 117 109 110 283 158 127 297 317 56 41 53 55 67 75 70 53 42 34 21 18 11 2 357 351 348 349 350 350 346 343 348 352 347 339 335 330 306
349 14 18 353 349 9 32 341 119 111 81 204 112 213 21 79 52 67 75 69 56 42 31 18 9 2 359 358 356 358 354 349 350 344 342 341 345 337 341 338 345 338 330 321
77 75 134 169 238 249 325 325 12 107 95 110 45 101 5 11 42 58 61 49 37 25 14 8 4 1 0 359 354 351 347 346 345 338 339 341 341 334 328 326 320 329 320 316
84 54 14 254 277 352 17 72 67 63 42 89 118 93 24 5 81 62 50 33 22 15 12 2 354 356 353 353 350 348 351 345 343 339 339 345 342 337 333 332 326 321 311 299
8 347 29 316 30 61 45 31 58 48 75 100 107 63 1 79 81 52 35 22 16 8 356 353 352 348 344 346 348 351 353 355 355 348 347 349 346 339 332 339 339 339 335 61
74 77 44 296 337 29 37 350 85 71 40 93 68 8 11 38 71 52 24 9 355 347 348 345 343 341 340 351 360 354 356 354 348 348 355 355 356 348 338 332 339 71 108 111
97 71 96 271 3 57 166 85 97 88 57 57 73 47 40 22 12 341 1 2 5 359 355 353 346 351 346 339 347 353 346 353 357 356 356 2 16 26 50 62 79 82 76 66
101 106 49 95 68 97 345 2 10 9 31 26 70 20 15 5 355 360 3 360 356 353 353 347 344 358 1 8 355 348 348 354 359 2 3 5 11 15 18 55 65 71 73 79
75 79 100 41 74 237 238 290 334 129 316 21 46 14 352 351 14 285 352 349 346 356 1 14 24 43 13 10 5 359 355 2 3 7 11 13 27 31 43 55 47 56 60 60
19 4 160 236 204 223 332 0 332 148 236 35 17 1 10 358 330 342 342 349 14 23 13 9 6 2 2 0 353 353 1 8 8 16 26 31 51 56 53 45 49 76 57 54
154 120 312 73 53 281 346 18 89 198 58 12 20 4 2 360 345 341 349 347 351 346 344 343 340 343 345 348 342 354 13 11 7 35 55 58 58 45 41 55 70 74 59 42
34 174 157 139 182 88 71 89 73 54 51 16 6 1 352 352 351 10 359 344 337 337 341 344 346 341 337 349 348 347 358 4 21 72 56 56 58 44 42 45 63 74 81 75
348 139 112 111 73 91 75 70 63 35 19 11 6 19 15 358 347 340 332 331 328 325 331 334 343 342 347 349 334 339 14 18 65 73 56 62 48 39 36 40 53 70 69 74
256 17 96 67 134 98 62 54 33 26 14 7 5 3 352 342 335 335 332 333 324 326 325 329 335 326 344 351 359 36 43 65 87 66 55 45 33 35 40 46 55 72 80 80
7 177 140 188 144 120 59 35 22 21 26 6 353 345 341 341 342 339 333 327 321 321 320 327 326 337 348 341 16 58 84 85 79 59 44 37 31 47 57 55 57 72 80 74
Wind_Speed_850mb
8 7 10 23 15 14 8 6 7 9 20 21 11 14 15 27 43 54 60 68 36 58 56 60 64 49 42 43 20 30 38 40 44 70 76 67 72 62 60 66 70 60 57 52
10 10 25 19 7 11 17 5 12 6 21 25 13 10 15 23 12 41 37 50 29 39 54 63 55 54 59 39 30 25 6 18 37 61 66 65 62 68 60 58 54 34 40 56
13 13 17 5 13 11 4 6 6 1 16 19 19 15 18 11 35 54 22 18 38 61 61 62 62 58 54 53 49 33 23 14 26 24 33 47 56 49 39 45 22 37 49 48
5 7 3 13 5 4 5 6 5 9 8 7 3 2 10 16 14 10 30 18 56 56 57 63 70 66 57 56 49 46 42 36 39 62 40 49 59 61 48 15 20 34 31 18
10 0 9 10 7 7 14 8 11 5 9 9 16 11 8 8 15 26 11 37 54 51 54 60 62 65 62 58 56 53 50 53 56 65 65 65 65 64 49 39 42 29 15 23
10 9 4 7 8 9 12 8 15 11 7 9 11 12 11 7 7 20 25 34 49 52 47 44 45 44 50 56 62 65 66 67 68 67 63 62 60 64 64 48 35 23 15 20
14 5 5 2 11 14 19 14 8 11 11 6 7 17 9 13 11 16 18 35 46 51 48 44 47 49 45 48 52 57 65 70 73 73 70 62 57 55 57 58 58 48 36 31
8 11 3 3 7 6 6 12 9 2 4 6 12 9 5 9 21 2 39 48 44 41 38 35 30 27 31 42 50 54 58 64 69 72 72 64 62 61 57 51 48 52 47 35
11 10 12 13 1 10 10 11 2 11 5 9 2 6 4 8 14 22 27 40 38 41 39 32 26 29 33 38 42 47 53 61 69 72 76 76 66 60 63 59 47 47 46 38
9 6 8 14 18 17 14 4 13 9 5 4 5 4 7 7 5 9 17 26 31 35 32 30 31 32 32 37 42 50 57 58 63 68 76 78 69 62 53 53 54 47 47 40
6 7 13 9 12 5 11 10 13 10 7 7 0 7 4 6 2 11 15 28 34 37 38 39 33 38 44 49 53 54 53 57 64 64 73 69 65 68 51 49 52 46 43 43
6 8 3 3 6 6 8 6 10 9 9 2 9 5 8 6 28 29 40 53 54 46 42 42 43 43 42 46 49 51 54 62 61 59 67 64 68 66 63 53 44 50 49 41
8 7 7 15 14 14 10 8 6 7 6 4 9 5 14 12 28 41 47 41 39 41 43 47 47 52 58 61 57 54 57 58 53 59 69 66 64 60 61 62 53 53 49 43
9 7 10 8 10 9 14 19 10 8 8 3 6 9 16 18 16 34 40 38 41 42 46 49 51 51 47 53 55 54 55 55 58 65 72 68 69 65 65 64 60 56 41 39
9 6 8 5 10 10 14 16 19 22 5 11 9 19 5 8 14 29 33 36 36 36 39 42 48 49 53 55 48 51 50 56 62 72 70 67 70 72 70 61 55 44 36 31
11 4 11 8 7 21 18 19 23 20 22 23 18 15 11 17 24 35 36 35 32 35 46 52 50 51 53 49 42 43 49 60 68 65 61 67 76 80 60 47 36 30 15 7
6 5 6 8 13 6 15 16 22 21 23 6 10 6 12 16 20 29 36 36 37 34 42 52 53 48 44 30 33 43 49 64 64 54 63 72 82 61 40 32 16 11 34 35
6 4 4 5 12 9 3 8 31 31 18 14 12 8 18 20 12 27 40 41 40 44 50 47 51 43 27 20 26 36 55 63 54 56 69 64 52 67 44 38 36 33 30 30
8 7 5 6 2 4 6 9 5 6 9 7 8 15 26 29 29 31 39 43 47 53 51 46 44 35 22 27 47 54 54 58 57 64 60 53 36 46 51 45 34 31 27 32
10 10 8 4 3 6 2 9 26 14 2 10 17 16 20 25 9 11 40 45 50 38 35 40 31 26 37 40 42 48 57 52 58 50 51 41 35 29 30 30 29 23 29 35
3 5 4 1 5 2 5 16 20 1 6 4 15 21 21 8 17 34 44 41 26 30 33 36 40 43 45 43 41 51 50 51 49 45 44 39 41 46 42 35 28 31 33 32
8 7 1 3 6 4 25 9 9 5 8 16 20 24 23 26 38 43 29 27 26 36 40 45 47 50 45 43 33 36 40 43 37 36 44 48 41 37 30 26 28 26 24 25
6 8 8 5 8 9 39 33 22 18 20 24 27 29 34 37 34 19 28 41 46 41 42 39 43 43 40 41 28 28 31 30 23 28 36 36 40 49 50 38 19 17 18 17
7 3 9 8 4 22 24 24 23 24 25 26 32 30 31 32 38 44 48 55 42 42 45 42 42 39 46 38 29 19 24 23 22 24 31 27 35 43 48 51 41 34 34 31
3 6 7 6 16 16 23 23 23 22 25 25 24 25 34 43 51 51 49 42 29 38 47 50 48 36 36 33 21 20 20 22 22 28 32 31 26 34 44 50 51 47 51 46
7 4 6 7 9 10 11 19 20 22 22 26 33 41 48 51 52 52 49 51 51 55 50 38 32 31 20 25 15 20 22 23 28 28 30 26 21 23 38 45 50 47 47 46
Wind_Direction_850mb
311 56 254 264 213 217 271 342 81 105 152 67 56 49 326 18 48 46 15 360 354 51 54 55 52 52 52 61 97 223 227 238 243 233 227 231 237 246 245 240 238 243 246 236
19 224 244 242 314 327 331 81 333 90 120 95 84 23 341 25 42 67 353 336 9 57 42 42 45 47 47 42 33 47 222 252 251 250 251 252 255 245 241 248 250 229 251 312
180 227 228 317 1 47 26 62 356 306 72 83 98 12 355 346 54 92 227 250 74 69 53 41 36 39 43 43 37 24 18 336 280 279 282 284 290 321 316 304 283 341 344 311
214 292 53 31 14 116 11 270 329 319 67 160 95 165 323 341 358 58 102 129 88 75 62 47 41 43 39 40 36 31 23 13 6 20 12 13 19 30 33 22 292 284 32 272
259 347 47 36 273 345 245 322 312 304 115 105 7 83 315 3 5 21 18 82 83 73 58 52 44 42 42 37 33 26 17 13 11 19 17 13 12 11 11 13 1 357 344 278
241 281 122 213 306 320 274 348 30 40 63 56 254 121 334 331 88 86 272 93 88 82 72 58 51 44 39 34 33 33 31 27 22 21 23 20 12 7 7 5 6 355 325 295
328 234 284 45 26 359 52 53 360 8 12 179 260 57 219 286 111 178 146 113 103 91 75 67 60 41 28 27 27 27 23 20 17 17 19 18 11 3 360 359 358 357 339 323
5 35 166 359 136 203 25 112 139 251 269 283 359 139 217 215 352 281 114 114 98 96 90 77 57 49 31 23 17 13 10 8 6 4 4 5 4 1 355 345 344 343 344 330
23 335 332 341 288 91 313 35 250 107 13 74 324 30 71 254 290 52 82 103 115 106 98 94 80 57 44 28 20 9 3 358 356 355 355 353 348 349 347 345 337 332 337 333
333 7 17 312 46 20 85 274 27 15 65 24 338 162 242 177 265 41 58 81 108 114 103 82 61 55 42 27 15 5 359 1 356 354 357 353 350 346 338 341 335 330 336 346
32 73 304 32 15 311 6 35 56 108 119 151 177 317 284 189 243 85 64 48 74 85 71 62 61 37 21 15 10 4 359 355 353 350 353 355 353 348 343 336 338 330 321 323
15 133 308 240 245 89 114 117 109 110 283 158 127 297 317 56 41 53 55 67 75 70 53 42 34 21 18 11 2 357 351 348 349 350 350 346 343 348 352 347 339 335 330 306
349 14 18 353 349 9 32 341 119 111 81 204 112 213 21 79 52 67 75 69 56 42 31 18 9 2 359 358 356 358 354 349 350 344 342 341 345 337 341 338 345 338 330 321
77 75 134 169 238 249 325 325 12 107 95 110 45 101 5 11 42 58 61 49 37 25 14 8 4 1 0 359 354 351 347 346 345 338 339 341 341 334 328 326 320 329 320 316
84 54 14 254 277 352 17 72 67 63 42 89 118 93 24 5 81 62 50 33 22 15 12 2 354 356 353 353 350 348 351 345 343 339 339 345 342 337 333 332 326 321 311 299
8 347 29 316 30 61 45 31 58 48 75 100 107 63 1 79 81 52 35 22 16 8 356 353 352 348 344 346 348 351 353 355 355 348 347 349 346 339 332 339 339 339 335 61
74 77 44 296 337 29 37 350 85 71 40 93 68 8 11 38 71 52 24 9 355 347 348 345 343 341 340 351 360 354 356 354 348 348 355 355 356 348 338 332 339 71 108 111
97 71 96 271 3 57 166 85 97 88 57 57 73 47 40 22 12 341 1 2 5 359 355 353 346 351 346 339 347 353 346 353 357 356 356 2 16 26 50 62 79 82 76 66
101 106 49 95 68 97 345 2 10 9 31 26 70 20 15 5 355 360 3 360 356 353 353 347 344 358 1 8 355 348 348 354 359 2 3 5 11 15 18 55 65 71 73 79
75 79 100 41 74 237 238 290 334 129 316 21 46 14 352 351 14 285 352 349 346 356 1 14 24 43 13 10 5 359 355 2 3 7 11 13 27 31 43 55 47 56 60 60
19 4 160 236 204 223 332 0 332 148 236 35 17 1 10 358 330 342 342 349 14 23 13 9 6 2 2 0 353 353 1 8 8 16 26 31 51 56 53 45 49 76 57 54
154 120 312 73 53 281 346 18 89 198 58 12 20 4 2 360 345 341 349 347 351 346 344 343 340 343 345 348 342 354 13 11 7 35 55 58 58 45 41 55 70 74 59 42
34 174 157 139 182 88 71 89 73 54 51 16 6 1 352 352 351 10 359 344 337 337 341 344 346 341 337 349 348 347 358 4 21 72 56 56 58 44 42 45 63 74 81 75
348 139 112 111 73 91 75 70 63 35 19 11 6 19 15 358 347 340 332 331 328 325 331 334 343 342 347 349 334 339 14 18 65 73 56 62 48 39 36 40 53 70 69 74
256 17 96 67 134 98 62 54 33 26 14 7 5 3 352 342 335 335 332 333 324 326 325 329 335 326 344 351 359 36 43 65 87 66 55 45 33 35 40 46 55 72 80 80
7 177 140 188 144 120 59 35 22 21 26 6 353 345 341 341 342 339 333 327 321 321 320 327 326 337 348 341 16 58 84 85 79 59 44 37 31 47 57 55 57 72 80 74